Ellsworth, ME

8:09 PM EST on December 07, 2016 (GMT -0500)
Hancock County-Bar Harbor

Weather History for KBHB - October, 2011

Change the Weather History Date:

Thursday, October 13, 2011

  Actual Average Record
Temperature  
Mean Temperature 52 °F -  
Max Temperature 57 °F 59 °F 75 °F (1954)
Min Temperature 48 °F 41 °F 33 °F (1999)
Degree Days  
Heating Degree Days 12    
Growing Degree Days 2 (Base 50)    
Moisture  
Dew Point 49 °F    
Average Humidity 84    
Maximum Humidity 88    
Minimum Humidity 77    
Precipitation  
Precipitation 0.10 in - - ()
Sea Level Pressure  
Sea Level Pressure 30.03 in    
Wind  
Wind Speed 4 mph (East)    
Max Wind Speed 13 mph    
Max Gust Speed 18 mph    
Visibility 7 miles    
Events      
Averages and records for this station are not official NWS values.
T = Trace of Precipitation, MM = Missing Value Source: NWS Daily Summary

Daily Weather History Graph

Daily Weather History Graph

Search for Another Location

Airport or City:

Trip Planner

Search our weather history database for the weather conditions in past years. The results will help you decide how hot, cold, wet, or windy it might be!

Date:

Astronomy

Oct. 13, 2011 Rise Set
Actual Time 6:45 AM EDT 5:53 PM EDT
Civil Twilight 6:16 AM EDT 6:22 PM EDT
Nautical Twilight 5:42 AM EDT 6:55 PM EDT
Astronomical Twilight 5:08 AM EDT 7:29 PM EDT
Moon 6:19 PM EDT (10/13) 8:20 AM EDT (10/13)
Length of Visible Light 12h 05m
Length of Day
11h 07m
Full, 98% of the Moon is Illuminated
Oct 13
Full
Oct 19
Last Quarter
Oct 26
New
Nov 2
First Quarter
Nov 10
Full

Hourly Weather History & Observations

Time (EDT) Temp. Dew Point Humidity Pressure Visibility Wind Dir Wind Speed Gust Speed Precip Events Conditions
12:15 AM 48.2 °F 44.6 °F 87% 30.17 in 10.0 mi Calm Calm - N/A   Overcast
12:35 AM 48.2 °F 44.6 °F 87% 30.16 in 10.0 mi Calm Calm - N/A   Overcast
12:55 AM 48.2 °F 44.6 °F 87% 30.16 in 10.0 mi North 3.5 mph - N/A   Overcast
1:15 AM 48.2 °F 44.6 °F 87% 30.15 in 10.0 mi Calm Calm - N/A   Overcast
1:35 AM 50.0 °F 46.4 °F 87% 30.15 in 10.0 mi North 3.5 mph - N/A   Overcast
1:55 AM 51.8 °F 46.4 °F 82% 30.15 in 10.0 mi NNE 3.5 mph - N/A   Overcast
2:15 AM 51.8 °F 46.4 °F 82% 30.14 in 10.0 mi Calm Calm - N/A   Overcast
2:35 AM 51.8 °F 46.4 °F 82% 30.13 in 10.0 mi Calm Calm - N/A   Mostly Cloudy
2:55 AM 50.0 °F 46.4 °F 87% 30.12 in 10.0 mi North 3.5 mph - N/A   Overcast
3:15 AM 51.8 °F 46.4 °F 82% 30.12 in 10.0 mi Calm Calm - N/A   Overcast
3:35 AM 51.8 °F 46.4 °F 82% 30.11 in 10.0 mi Calm Calm - N/A   Overcast
3:55 AM 51.8 °F 46.4 °F 82% 30.11 in 10.0 mi Calm Calm - N/A   Overcast
4:15 AM 51.8 °F 46.4 °F 82% 30.10 in 10.0 mi East 4.6 mph - N/A   Mostly Cloudy
4:35 AM 51.8 °F 46.4 °F 82% 30.10 in 10.0 mi East 3.5 mph - N/A   Overcast
4:55 AM 51.8 °F 46.4 °F 82% 30.10 in 10.0 mi East 4.6 mph - N/A   Overcast
5:15 AM 51.8 °F 46.4 °F 82% 30.09 in 9.0 mi East 4.6 mph - N/A   Overcast
5:35 AM 51.8 °F 46.4 °F 82% 30.08 in 10.0 mi East 4.6 mph - N/A   Overcast
5:55 AM 51.8 °F 46.4 °F 82% 30.08 in 10.0 mi East 4.6 mph - N/A   Overcast
6:15 AM 51.8 °F 46.4 °F 82% 30.08 in 5.0 mi ENE 3.5 mph - N/A   Overcast
6:35 AM 51.8 °F 46.4 °F 82% 30.07 in 5.0 mi East 4.6 mph - N/A   Mostly Cloudy
6:55 AM 51.8 °F 46.4 °F 82% 30.07 in 4.0 mi East 6.9 mph - N/A   Overcast
7:15 AM 51.8 °F 46.4 °F 82% 30.07 in 2.5 mi East 4.6 mph - N/A   Overcast
7:55 AM 51.8 °F 46.4 °F 82% 30.07 in 6.0 mi East 5.8 mph - N/A   Overcast
8:15 AM 53.6 °F 48.2 °F 82% 30.07 in 8.0 mi ESE 4.6 mph - N/A   Overcast
8:35 AM 53.6 °F 48.2 °F 82% 30.07 in 4.0 mi East 4.6 mph - N/A   Overcast
8:55 AM 53.6 °F 48.2 °F 82% 30.06 in 10.0 mi East 4.6 mph - N/A   Overcast
9:35 AM 53.6 °F 48.2 °F 82% 30.06 in 8.0 mi East 5.8 mph - N/A   Overcast
10:15 AM 55.4 °F 48.2 °F 77% 30.05 in 9.0 mi East 6.9 mph - N/A   Overcast
10:35 AM 55.4 °F 48.2 °F 77% 30.04 in 10.0 mi East 6.9 mph - N/A   Overcast
10:55 AM 55.4 °F 48.2 °F 77% 30.04 in 9.0 mi East 8.1 mph - N/A   Overcast
11:15 AM 55.4 °F 50.0 °F 82% 30.02 in 4.0 mi East 8.1 mph - N/A   Overcast
11:35 AM 55.4 °F 51.8 °F 88% 30.03 in 9.0 mi SE 5.8 mph - N/A   Overcast
11:55 AM 55.4 °F 50.0 °F 82% 30.01 in 9.0 mi East 6.9 mph - N/A   Overcast
12:15 PM 55.4 °F 50.0 °F 82% 30.01 in 9.0 mi ESE 8.1 mph - N/A   Overcast
12:35 PM 55.4 °F 51.8 °F 88% 29.99 in 5.0 mi East 5.8 mph - N/A   Overcast
12:55 PM 55.4 °F 51.8 °F 88% 29.98 in 8.0 mi East 8.1 mph - N/A   Overcast
1:15 PM 55.4 °F 50.0 °F 82% 29.97 in 8.0 mi East 8.1 mph - N/A   Overcast
1:35 PM 55.4 °F 51.8 °F 88% 29.96 in 5.0 mi East 8.1 mph - N/A   Overcast
1:55 PM 55.4 °F 51.8 °F 88% 29.95 in 5.0 mi East 10.4 mph - N/A   Overcast
2:15 PM 55.4 °F 51.8 °F 88% 29.95 in 5.0 mi ESE 8.1 mph 17.3 mph 0.01 in   Overcast
2:35 PM 55.4 °F 51.8 °F 88% 29.93 in 4.0 mi East 9.2 mph 16.1 mph 0.03 in   Overcast
3:15 PM 57.2 °F 51.8 °F 82% 29.93 in 4.0 mi ESE 4.6 mph - 0.02 in   Overcast
3:35 PM 57.2 °F 51.8 °F 82% 29.92 in 5.0 mi ESE 8.1 mph - 0.04 in   Overcast
3:55 PM 57.2 °F 51.8 °F 82% 29.92 in 9.0 mi ESE 9.2 mph - 0.04 in   Overcast
4:15 PM 57.2 °F 51.8 °F 82% 29.91 in 5.0 mi ESE 6.9 mph - N/A   Overcast
4:35 PM 57.2 °F 51.8 °F 82% 29.91 in 10.0 mi ESE 8.1 mph - N/A   Overcast
4:55 PM 57.2 °F 51.8 °F 82% 29.91 in 3.0 mi East 6.9 mph - N/A   Overcast
5:15 PM 57.2 °F 51.8 °F 82% 29.90 in 3.0 mi East 10.4 mph - 0.02 in   Overcast
5:35 PM 57.2 °F 51.8 °F 82% 29.90 in 6.0 mi East 11.5 mph 17.3 mph 0.03 in   Overcast
5:55 PM 57.2 °F 51.8 °F 82% 29.89 in 3.0 mi East 10.4 mph 18.4 mph 0.03 in   Overcast
6:15 PM 57.2 °F 53.6 °F 88% 29.89 in 9.0 mi East 12.7 mph 18.4 mph N/A   Overcast
6:35 PM 57.2 °F 53.6 °F 88% 29.89 in 3.0 mi ESE 11.5 mph 17.3 mph N/A   Overcast
7:15 PM 57.2 °F 53.6 °F 88% 29.88 in 3.0 mi East 11.5 mph - N/A   Overcast
7:35 PM 57.2 °F 53.6 °F 88% 29.88 in 6.0 mi East 9.2 mph - N/A   Overcast
7:55 PM 57.2 °F 53.6 °F 88% 29.88 in 8.0 mi East 13.8 mph 17.3 mph N/A   Overcast
8:15 PM 57.2 °F 53.6 °F 88% 29.87 in 3.0 mi East 10.4 mph - 0.01 in   Overcast
8:35 PM 57.2 °F 53.6 °F 88% 29.87 in 4.0 mi ESE 11.5 mph 17.3 mph 0.01 in   Overcast
9:15 PM 57.2 °F 53.6 °F 88% 29.87 in 5.0 mi ESE 6.9 mph - N/A   Overcast
9:35 PM 57.2 °F 55.4 °F 94% 29.87 in 3.0 mi ESE 4.6 mph - N/A   Overcast
10:15 PM 57.2 °F 53.6 °F 88% 29.86 in 7.0 mi East 6.9 mph - N/A   Overcast
10:35 PM 57.2 °F 53.6 °F 88% 29.86 in 6.0 mi East 5.8 mph - N/A   Overcast
10:55 PM 57.2 °F 53.6 °F 88% 29.85 in 6.0 mi East 5.8 mph - N/A   Overcast
11:15 PM 57.2 °F 53.6 °F 88% 29.85 in 9.0 mi East 10.4 mph - N/A   Overcast
11:35 PM 57.2 °F 53.6 °F 88% 29.85 in 8.0 mi ESE 8.1 mph - N/A   Overcast
11:55 PM 57.2 °F 53.6 °F 88% 29.84 in 7.0 mi East 8.1 mph - N/A   Overcast